KD8CJ Weather Reports


time (UTC)temp
F
wind
direction
speed
knots
gust
knots
rain 1hr
in
rain 24hr
in
rain mn
in
humidity
%
barometer
mb
20260506221507 56 267 0.0 0.9 0.00 1.52 0.83 60 1012.1
20260506220014 56 255 0.0 1.7 0.00 1.52 0.83 53 1011.9
20260506214514 56 317 0.9 1.7 0.00 1.52 0.83 53 1011.9
20260506213025 56 274 0.0 2.6 0.00 1.52 0.83 56 1011.8
20260506211502 57 320 0.9 4.3 0.00 1.52 0.83 54 1011.7
20260506210007 57 152 0.0 1.7 0.00 1.52 0.83 55 1011.5
20260506204510 56 257 0.9 4.3 0.00 1.52 0.83 51 1011.5
20260506203023 56 94 0.9 4.3 0.00 1.52 0.83 55 1011.4
20260506201526 56 236 0.9 1.7 0.00 1.52 0.83 59 1011.5
20260506200023 57 283 0.9 3.5 0.00 1.52 0.83 52 1011.6
20260506194525 58 274 0.9 4.3 0.00 1.52 0.83 57 1011.3
20260506193016 58 330 0.0 3.5 0.00 1.54 0.83 58 1011.1
20260506191519 59 317 0.0 3.5 0.00 1.54 0.83 54 1011.4
20260506190019 60 296 0.9 5.2 0.00 1.58 0.83 51 1011.6
20260506184523 61 342 0.9 1.7 0.00 1.58 0.83 50 1011.3
20260506183026 58 131 0.9 5.2 0.00 1.58 0.83 51 1011.6
20260506181524 57 241 0.9 5.2 0.00 1.58 0.83 53 1011.7
20260506180020 59 231 0.9 4.3 0.00 1.58 0.83 55 1011.3
20260506174521 59 240 2.6 7.0 0.00 1.58 0.83 55 1011.4
20260506173027 59 272 0.9 3.5 0.00 1.58 0.83 54 1011.4
20260506171538 58 148 0.9 2.6 0.00 1.58 0.83 52 1011.5
20260506170016 58 94 0.9 2.6 0.00 1.58 0.83 60 1011.4
20260506164522 58 288 0.9 2.6 0.00 1.58 0.83 60 1011.2
20260506163022 57 254 1.7 4.3 0.00 1.58 0.83 65 1011.3
20260506161531 55 287 1.7 4.3 0.00 1.58 0.83 65 1011.2
20260506160040 55 103 0.0 2.6 0.00 1.58 0.83 68 1011.1
20260506154521 54 101 0.0 4.3 0.00 1.58 0.83 72 1010.7
20260506153021 53 10 0.9 3.5 0.00 1.58 0.83 75 1010.8
20260506151533 53 264 0.9 2.6 0.00 1.58 0.83 78 1010.5
20260506150031 52 305 0.9 3.5 0.00 1.58 0.83 82 1010.3
20260506144529 50 267 0.0 4.3 0.00 1.58 0.83 86 1010.3
20260506143019 49 115 0.0 1.7 0.00 1.58 0.83 85 1010.2
20260506141502 48 138 0.9 2.6 0.00 1.58 0.83 89 1010.1
20260506140007 47 274 0.9 3.5 0.00 1.58 0.83 90 1010.0
20260506134503 47 263 0.0 3.5 0.00 1.58 0.83 91 1009.7
20260506133005 47 230 0.0 2.6 0.00 1.58 0.83 92 1009.8
20260506131508 47 264 0.0 1.7 0.00 1.58 0.83 92 1009.3
20260506130006 47 239 0.0 0.9 0.00 1.58 0.83 94 1008.8
20260506124505 46 239 0.0 0.9 0.00 1.58 0.83 94 1008.8
20260506123004 46 129 0.0 0.0 0.00 1.58 0.83 94 1009.0
20260506121507 46 129 0.0 2.6 0.00 1.58 0.83 94 1009.0
20260506120006 46 267 0.0 0.9 0.00 1.58 0.83 95 1008.5
20260506114508 46 130 0.0 0.9 0.00 1.58 0.83 95 1008.3
20260506113005 45 130 0.0 0.0 0.00 1.58 0.83 95 1008.3
20260506111509 45 130 0.0 2.6 0.00 1.58 0.83 95 1007.9
20260506110007 45 123 0.0 1.7 0.01 1.58 0.83 95 1008.4
20260506104504 45 102 0.0 0.9 0.01 1.58 0.83 95 1007.8
20260506103010 45 102 0.0 0.9 0.02 1.58 0.83 94 1007.0
20260506101509 45 150 0.0 0.9 0.06 1.58 0.83 94 1006.8
20260506100008 44 62 0.0 1.7 0.09 1.57 0.82 94 1007.0
20260506094515 45 143 0.0 0.9 0.13 1.57 0.82 94 1007.0
20260506093009 45 72 0.0 0.9 0.16 1.56 0.81 94 1007.5
20260506091507 45 77 0.0 0.9 0.14 1.52 0.77 94 1007.6
20260506090009 45 77 0.0 1.7 0.10 1.48 0.73 94 1007.6
20260506084516 45 162 0.0 1.7 0.10 1.44 0.69 94 1007.8
20260506083008 45 87 0.0 0.9 0.11 1.40 0.65 94 1007.4
20260506081508 45 44 0.0 3.5 0.13 1.38 0.63 94 1007.0
20260506073013 48 138 0.0 2.6 0.18 1.29 0.54 94 1007.0
20260506071515 48 58 0.0 2.6 0.16 1.25 0.50 94 1006.6
20260506061512 49 116 0.0 0.9 0.16 1.09 0.34 94 1006.7
20260506044518 50 249 0.0 0.9 0.22 0.87 0.12 93 1007.6
20260506043017 51 132 0.0 1.7 0.23 0.85 0.10 92 1007.9
20260506041525 51 350 0.0 2.6 0.24 0.82 0.07 92 1007.9
20260506040017 53 268 0.9 3.5 0.19 0.75 0.00 91 1008.0
20260506034518 55 250 0.0 0.9 0.11 0.65 0.65 91 1007.8
20260506033017 57 44 0.9 2.6 0.10 0.62 0.62 93 1007.5
20260506031524 58 238 0.0 0.0 0.06 0.58 0.58 94 1007.6
20260506030023 58 238 0.0 0.0 0.06 0.56 0.56 93 1007.7
20260506024520 58 238 0.0 0.9 0.05 0.54 0.54 93 1007.9
20260506023003 58 238 0.0 0.9 0.08 0.52 0.52 93 1008.1
20260506021506 58 243 0.0 0.9 0.08 0.52 0.52 93 1008.2
20260506020014 58 243 0.0 1.7 0.06 0.50 0.50 93 1008.0
20260506014519 58 262 0.0 1.7 0.05 0.49 0.49 93 1007.8
20260506013026 58 258 0.0 1.7 0.00 0.44 0.44 93 1007.5
20260506011504 57 194 0.0 0.9 0.00 0.44 0.44 93 1007.3
20260506010008 58 194 0.0 0.9 0.00 0.44 0.44 92 1007.3
20260506004519 58 191 0.0 1.7 0.00 0.44 0.44 92 1007.4
20260506003016 58 277 0.0 0.9 0.01 0.44 0.44 92 1007.4
20260506001520 58 278 0.0 0.9 0.02 0.44 0.44 91 1007.4
20260506000016 58 175 0.0 0.9 0.06 0.44 0.44 90 1007.4
20260505234517 58 175 0.0 0.0 0.38 0.44 0.44 90 1007.5
20260505233016 58 175 0.0 0.9 0.37 0.43 0.43 89 1007.8
20260505231522 59 307 0.0 3.5 0.36 0.42 0.42 87 1007.6
20260505230026 60 160 0.9 18.2 0.32 0.38 0.38 84 1007.9
20260505224507 67 310 0.9 2.6 0.00 0.06 0.06 68 1006.5
20260505223012 67 274 0.9 2.6 0.00 0.06 0.06 68 1006.6